Theta_e
335 334 335 334 337 333 330 328 326 327 329 330 331 330 329 328 326 323 323 324 323 322 322 321 323 323 323 324 325 325 323 319 315 314 315 317 317 319 321 321 324 325 327
331 331 330 330 329 327 327 326 327 328 328 327 328 327 326 327 326 324 323 322 320 318 318 318 318 322 317 319 322 321 318 317 314 311 313 314 316 317 318 318 319 322 321
325 329 325 326 326 325 326 327 328 324 323 323 322 321 320 319 319 319 320 319 318 316 315 315 316 315 314 315 315 316 315 318 317 314 313 314 315 316 314 314 314 314 316
324 328 327 325 325 326 326 325 324 322 320 319 319 318 319 318 320 319 318 315 314 314 313 312 313 313 312 312 313 313 312 312 315 316 315 314 314 314 313 311 310 311 312
327 330 327 326 325 323 323 323 321 320 320 317 315 314 315 314 315 311 312 311 310 311 311 311 312 315 320 317 312 311 309 311 313 312 313 313 312 309 311 312 312 310 308
329 327 326 321 319 321 321 320 318 317 315 313 310 310 310 311 309 307 310 308 308 308 308 309 310 314 314 315 314 315 312 308 308 306 307 309 307 313 312 312 312 308 307
322 321 320 318 317 321 320 317 315 310 310 308 306 306 309 307 307 304 307 306 305 305 306 308 309 312 310 307 309 310 310 312 311 307 305 305 303 306 308 310 311 311 311
316 316 316 315 314 315 314 312 310 309 307 305 305 307 307 309 306 303 305 304 304 306 307 307 306 305 305 305 305 304 304 306 307 310 308 307 306 306 308 307 308 311 312
312 312 313 313 311 309 308 309 308 306 305 305 308 307 306 308 305 304 304 304 304 304 305 305 305 305 304 298 302 301 301 302 308 309 308 306 304 305 308 310 309 308 306
311 311 311 312 309 306 304 304 307 306 308 310 308 308 309 308 304 303 303 304 302 302 302 305 305 304 301 296 300 299 298 300 302 303 304 308 307 307 304 312 308 305 306
311 310 309 308 307 305 306 307 307 306 307 307 305 305 307 307 306 302 300 301 300 302 303 303 304 301 295 297 297 297 299 302 302 302 303 302 302 307 309 309 310 310 307
309 309 308 307 307 309 307 307 306 305 303 302 302 302 304 304 304 301 300 299 301 300 301 303 302 299 297 296 297 298 297 298 300 301 304 304 300 301 307 309 309 310 312
306 304 304 307 308 309 306 304 303 302 302 301 301 301 301 303 305 301 300 299 300 299 300 300 298 296 296 298 299 299 298 299 300 303 303 304 305 304 304 308 309 310 311
306 308 307 306 306 306 309 308 305 301 300 301 301 300 299 301 300 299 301 298 300 300 300 298 299 299 299 301 301 305 302 304 304 304 303 303 306 306 306 308 307 308 307
306 305 305 305 305 306 309 305 304 303 301 300 299 298 298 301 303 295 295 298 297 296 295 297 299 300 302 302 303 305 306 306 305 305 305 306 306 307 306 307 307 307 305
305 304 303 303 303 304 301 302 300 297 295 295 295 295 299 297 294 293 293 292 291 293 296 296 297 297 297 299 301 301 303 304 303 303 303 304 304 305 305 306 307 307 304
303 304 302 302 302 301 300 299 298 299 296 296 295 296 294 293 293 294 294 294 296 294 295 295 296 297 297 296 299 300 301 302 303 302 302 302 303 304 303 303 306 305 304
304 301 301 301 300 300 299 299 298 296 295 296 299 298 296 295 294 294 293 298 301 297 294 294 295 295 296 297 297 298 301 302 302 303 303 304 303 303 302 303 303 303 304
304 306 304 302 300 299 298 297 297 296 296 296 298 297 297 295 295 295 296 299 299 296 293 293 294 293 294 295 295 296 296 299 297 296 297 302 304 304 303 304 302 298 299
304 302 301 303 301 298 298 296 296 295 294 295 297 295 296 296 297 297 295 293 292 293 294 293 294 294 294 294 294 297 295 295 295 295 294 295 297 302 303 303 303 302 301
304 306 301 302 298 298 297 296 295 294 294 294 295 296 286 293 295 294 293 293 293 293 293 292 291 292 293 293 294 295 296 296 295 294 294 295 295 295 297 299 300 300 300
305 304 302 301 299 298 297 296 295 294 294 295 296 296 289 296 295 294 294 294 294 294 293 292 291 291 292 291 291 292 292 292 292 292 292 293 293 293 294 296 297 297 296
305 303 303 301 299 299 299 296 295 294 294 298 298 301 300 296 294 294 295 294 294 293 292 292 291 291 292 292 290 287 287 289 290 292 291 291 291 291 291 292 295 295 297
305 304 303 301 302 301 298 297 301 295 299 298 298 299 299 296 296 298 296 294 294 293 292 292 291 292 292 290 289 289 288 287 290 290 293 293 292 292 291 291 292 293 295
308 306 304 304 301 302 302 300 301 301 299 300 298 299 298 298 297 296 295 294 294 293 292 291 292 293 292 290 291 290 287 286 288 286 294 295 295 294 292 292 292 293 294
303 302 302 300 296 297 298 296 296 296 297 297 298 298 297 295 294 294 294 294 293 292 292 291 291 291 291 289 287 286 286 286 288 287 296 298 296 295 294 293 295 294 294
Wind_Speed
6 4 4 3 3 5 5 4 4 0 3 4 5 4 4 5 6 2 5 6 5 6 6 6 9 7 7 6 3 5 8 5 8 2 2 2 5 5 4 5 5 8 9
5 4 4 5 6 3 5 5 2 5 5 6 5 5 5 5 5 5 6 6 5 6 6 5 6 3 5 5 3 3 2 4 4 5 3 3 2 5 5 1 3 4 5
3 2 1 3 3 5 4 4 6 6 6 6 6 6 6 5 6 4 3 4 4 4 5 5 6 5 5 4 5 5 4 4 4 3 5 3 4 3 1 4 2 1 2
2 2 3 2 3 4 3 7 7 4 6 3 5 5 5 4 4 5 5 5 6 6 6 6 7 6 6 6 5 6 4 4 4 5 6 5 5 3 3 4 4 2 2
1 1 4 3 6 6 7 6 5 5 5 3 4 5 6 3 3 5 5 5 6 7 7 7 7 8 12 9 4 6 4 3 4 6 5 4 4 3 6 4 6 2 1
5 6 6 5 6 6 6 6 5 3 2 4 6 4 6 4 8 8 4 6 7 6 7 8 7 10 7 10 11 9 8 6 5 4 4 6 6 5 5 6 7 5 6
6 6 6 6 6 6 5 5 4 2 0 2 4 4 5 6 9 8 6 5 6 6 7 7 6 4 5 4 7 7 8 10 10 6 6 6 5 6 5 6 6 6 7
7 6 6 6 6 5 5 5 4 4 5 5 4 5 5 6 7 9 7 5 6 7 7 7 6 7 3 4 4 6 6 6 6 5 6 6 6 6 6 6 6 8 5
5 5 4 6 6 5 4 5 6 4 3 2 1 4 5 8 10 10 9 5 6 9 9 7 6 7 5 4 3 5 6 6 4 8 11 12 11 11 8 4 6 6 6
4 4 4 5 4 3 3 5 3 2 1 1 4 3 5 7 8 15 13 4 6 6 8 7 7 7 7 6 5 4 6 7 6 7 4 6 8 9 12 10 5 7 3
4 4 3 3 4 4 2 2 2 2 2 2 3 5 6 4 5 11 12 3 3 4 4 5 6 9 10 12 10 7 11 9 10 6 6 5 4 6 7 7 9 8 6
4 3 3 4 3 2 3 4 4 4 2 1 4 6 5 7 6 7 9 7 6 4 7 7 8 12 17 16 12 13 15 10 6 6 6 6 4 4 6 6 7 9 8
1 3 4 3 2 3 5 5 2 1 3 5 4 4 5 4 3 8 9 9 8 5 4 10 16 15 15 11 12 15 10 4 4 4 4 5 5 5 5 4 5 7 9
5 4 4 4 5 4 2 2 2 3 3 4 4 4 4 4 3 4 4 5 8 6 8 7 9 13 10 9 8 7 1 2 3 3 4 4 3 2 5 5 4 5 4
6 4 4 4 0 1 3 4 3 2 4 3 3 3 2 4 3 4 5 4 4 6 7 4 4 6 8 8 8 5 4 3 3 3 4 4 4 3 4 4 5 5 6
5 3 1 1 3 2 2 4 6 1 3 4 3 1 3 4 7 9 8 9 8 7 2 4 5 4 4 7 7 6 5 6 5 5 5 4 1 2 5 6 5 6 9
5 3 1 3 4 3 3 3 3 4 7 6 5 5 6 5 7 7 7 8 7 6 3 4 5 5 5 4 4 5 4 3 4 4 4 4 3 1 2 3 8 9 11
2 1 1 2 2 3 3 3 3 3 3 4 5 4 8 8 9 9 10 8 5 6 3 4 6 6 5 6 4 3 6 3 4 5 3 4 5 3 2 3 6 9 8
3 1 3 4 3 3 3 3 3 3 2 2 3 5 8 12 11 8 6 3 3 4 4 5 5 5 5 6 5 5 5 4 4 5 4 2 3 5 5 5 7 7 8
3 2 4 4 3 3 4 4 3 3 4 4 4 3 5 6 6 5 4 3 4 4 4 5 5 5 6 6 6 7 6 7 6 6 5 5 3 1 3 4 5 4 3
3 3 7 4 3 4 3 3 2 3 2 3 3 3 2 1 4 3 3 4 4 4 4 4 5 5 6 6 7 7 7 6 6 6 6 6 5 4 4 4 5 5 5
2 3 3 3 4 3 3 2 2 1 2 3 4 4 6 2 3 2 3 3 3 4 3 4 4 4 5 6 6 6 6 6 7 6 5 5 5 5 4 5 5 5 6
3 4 2 3 3 3 2 2 2 2 4 4 5 4 4 1 2 2 3 2 3 4 4 4 4 4 5 6 5 4 5 5 5 4 5 5 5 5 5 4 4 4 5
2 2 3 2 3 2 2 2 3 4 5 5 4 4 4 2 3 3 3 3 4 3 3 3 4 5 5 5 5 5 4 5 4 4 4 3 3 4 5 5 4 5 4
5 4 3 3 4 1 2 1 3 4 2 3 4 3 3 4 5 4 3 3 4 4 4 4 4 5 7 8 10 9 9 10 7 6 4 4 7 5 4 4 3 4 4
6 6 6 6 7 7 6 6 5 6 7 7 6 5 5 6 5 6 5 4 4 4 5 4 6 8 8 7 8 10 11 11 10 10 5 3 5 4 3 4 4 4 5
Wind_Direction
59 41 42 100 171 120 229 239 256 234 349 297 278 283 266 274 290 296 280 282 280 290 292 281 279 279 272 263 249 254 249 234 244 251 159 321 304 281 233 198 211 216 211
75 84 175 98 116 217 257 251 43 34 37 29 16 12 2 346 338 331 319 315 300 305 301 308 293 305 310 295 286 278 224 165 197 194 212 190 212 321 330 276 161 168 212
115 160 195 141 106 247 250 28 60 75 49 44 47 37 17 29 37 357 299 318 340 333 310 308 293 301 294 282 274 263 248 261 210 208 236 196 181 204 354 334 352 3 141
232 94 303 286 242 242 122 109 92 89 85 46 36 23 15 342 337 337 334 330 328 309 303 305 297 296 283 279 267 259 254 242 234 234 243 221 206 196 177 187 217 176 134
167 239 249 223 152 129 99 105 108 81 64 49 23 0 358 330 283 309 302 290 290 292 294 289 279 276 281 279 238 263 227 231 259 256 255 244 222 193 215 201 193 148 157
178 184 172 145 133 137 105 97 92 120 101 32 4 348 318 298 327 322 274 269 279 275 279 292 294 300 302 303 303 270 225 202 220 204 224 232 232 221 219 221 218 181 198
118 100 97 89 85 110 130 134 139 123 158 274 292 289 291 312 300 301 328 285 278 277 272 275 286 281 302 306 313 321 303 246 223 191 209 214 206 210 188 206 213 225 223
95 114 131 132 129 140 142 164 191 204 220 233 268 299 300 287 261 293 308 296 284 284 272 271 270 282 266 309 331 328 328 305 261 221 224 224 209 205 196 189 204 229 223
98 97 113 130 139 161 181 211 237 229 246 305 266 307 326 302 275 290 299 316 303 300 308 300 298 283 252 291 337 312 309 296 294 240 230 242 217 201 191 189 228 219 211
112 118 133 160 174 216 272 245 254 56 348 303 300 356 346 291 302 301 309 312 301 308 298 302 305 274 250 306 280 276 286 274 291 304 287 275 254 247 233 215 188 225 196
140 133 140 169 216 231 279 353 61 118 108 42 3 300 269 272 308 308 309 317 317 304 303 296 301 301 276 289 261 256 258 266 277 260 265 272 250 239 236 214 222 216 215
158 165 211 236 290 16 98 121 95 102 102 297 290 295 318 308 358 359 12 10 338 308 310 312 304 303 299 295 297 271 260 261 253 260 262 257 251 236 227 191 209 228 226
265 330 349 344 359 36 106 119 129 184 253 282 287 309 298 323 3 0 339 333 331 332 319 309 302 299 300 297 287 284 276 201 228 237 236 251 238 235 211 198 201 234 229
61 55 56 62 83 84 109 212 229 277 293 277 290 290 301 319 355 317 320 335 343 333 336 309 307 309 291 300 322 329 292 226 232 255 263 255 249 225 219 183 186 186 171
84 60 50 65 55 229 278 267 266 300 243 257 259 261 311 318 317 298 306 314 320 322 318 315 327 346 348 354 5 355 0 347 318 294 291 287 263 230 222 181 193 176 173
108 95 49 338 312 300 299 1 44 43 44 64 310 242 314 287 315 286 275 276 273 316 305 311 317 328 343 342 345 358 8 4 2 350 343 336 346 290 225 200 188 189 151
130 168 270 326 321 353 32 63 41 355 47 37 18 13 3 313 324 331 340 329 324 327 309 307 306 308 302 302 321 326 338 349 333 338 331 321 308 217 79 350 158 135 120
206 250 342 19 44 55 60 72 64 46 7 330 324 350 337 346 333 331 344 346 352 1 358 354 351 348 336 323 312 285 299 322 314 313 322 347 9 64 45 71 60 89 125
347 19 67 97 81 79 60 51 45 31 28 347 353 355 349 341 335 1 12 24 348 7 347 358 347 348 347 347 352 359 359 15 2 357 360 1 36 32 76 99 116 89 87
332 102 159 111 93 72 54 48 41 35 46 21 5 332 335 4 7 347 7 44 38 23 3 4 354 358 358 356 354 1 11 14 11 3 8 20 33 37 84 92 102 125 112
320 169 130 106 86 78 80 80 64 50 19 339 310 286 321 22 328 343 1 33 37 29 15 8 358 4 3 3 4 6 9 9 5 9 10 8 17 49 51 85 112 113 120
334 164 140 140 133 122 134 134 120 116 293 313 305 306 346 356 54 34 55 54 55 48 29 32 18 13 17 21 8 8 12 11 5 6 13 22 20 30 47 65 78 105 111
332 140 173 197 159 167 194 201 215 272 295 301 296 308 320 38 92 67 62 74 75 55 31 33 35 28 22 23 13 6 6 350 329 344 26 23 29 38 34 55 82 78 105
27 74 71 122 179 226 253 215 229 260 273 280 273 291 301 37 119 115 97 112 97 69 50 38 30 45 32 16 356 351 4 338 337 355 3 57 61 49 63 53 56 82 81
58 28 357 351 333 44 355 259 311 329 336 359 35 56 44 51 32 34 70 103 110 89 57 27 22 22 30 23 16 10 342 343 2 340 8 54 77 83 84 83 87 82 85
34 43 48 44 26 42 51 40 28 30 53 50 45 39 36 47 34 35 25 51 101 86 65 29 19 23 17 14 7 352 359 356 1 354 350 17 52 60 102 111 95 108 116